Погода в Бирске

Россия / Республика Башкортостан     55°25′03″N   55°31′50″E
темп.,
°C
ветер,
м/с
пор.,
м/с
влажн.,
%
обл.,
%
осадки,
мм/ч
давл.,
гПа
погр.,
м
22 апреля, чт
чт2223:00+8ююв41247100 0.0 1029339
02:00+8ююв61547100 0.0 1029566
05:00+7ю71257100 0.0 1030896
08:00+6ю81469100 0.1 10301106
11:00+5ю81282100 0.4 1030805
14:00+9ю61057100 0.1 10301429
17:00+9ю7972100 0.1 10301134
20:00+5ю71290100 0.6 1031763
23 апреля, пт
пт2323:00+3ю51296100 4.1 1031633
02:00+3ю61197100 1.9 1030532
05:00+3ю5897100 3.1 1030601
08:00+3ююв4797100 0.1 1030440
11:00+5ю3591100 0.1 1030597
14:00+7ююв348393 0.1 1029635
17:00+10ююв1366100 0.1 1028840
20:00+8св478196 0.0 1027162
24 апреля, сб
сб2423:00+6всв3887100 0.0 1025159
02:00+7ююв51187100 0.0 1024358
05:00+7юв4895100 0.7 1022355
08:00+7вюв51093100 1.7 1021499
11:00+8вюв5983100 2.3 1019829
14:00+9юв6978100 0.3 10171024
17:00+10вюв5872100 0.5 10151315
20:00+7вюв3890100 1.3 10141054
25 апреля, вс
вс2523:00+6юв61092100 2.1 1013772
02:00+6ююв5994100 0.8 1012653
05:00+6ю4892100 0.9 1012338
08:00+6ююв599250 0.0 1011404
11:00+9ююв81275100 0.1 10091155
14:00+8юз9127854 5.1 10111236
17:00+9зюз710688 5.3 10131470
20:00+8юз59705 0.3 1014297
26 апреля, пн
пн2623:00+5ююз49842 0.5 1015174
02:00+5ююз3984100 0.1 1016186
05:00+4ю3492100 0.5 101682
08:00+5ююз3785100 0.1 1016323
11:00+9зюз6861100 0.6 10161233
14:00+11зюз6745100 0.1 10162157
17:00+11зюз5641100 0.1 10152102
20:00+8зюз225883 0.0 101423